GW3570 Weather Reports


Display with metric or nautical units.
time (UTC)temp
F
wind
direction
speed
MPH
gust
MPH
rain 1hr
in
rain 24hr
in
rain mn
in
humidity
%
barometer
mb
20260508104829 53 175 0.0 0.0 0.00 0.00 0.00 77 1012.3
20260508104326 54 142 0.0 0.0 0.00 0.00 0.00 77 1012.4
20260508103823 54 173 0.0 0.0 0.00 0.00 0.00 77 1012.4
20260508103319 54 176 0.0 0.0 0.00 0.00 0.00 78 1012.5
20260508102817 53 175 0.0 0.0 0.00 0.00 0.00 78 1012.7
20260508102315 53 179 0.0 0.0 0.00 0.00 0.00 78 1012.7
20260508101812 53 184 0.0 0.0 0.00 0.00 0.00 78 1012.5
20260508101309 53 175 0.0 0.0 0.00 0.00 0.00 78 1012.5
20260508100806 53 171 0.0 0.0 0.00 0.00 0.00 78 1012.5
20260508100305 53 175 0.0 0.0 0.00 0.00 0.00 79 1012.7
20260508095800 53 168 0.0 1.0 0.00 0.00 0.00 80 1012.7
20260508095258 52 180 0.0 0.0 0.00 0.00 0.00 80 1012.9
20260508094755 52 186 0.0 0.0 0.00 0.00 0.00 80 1012.6
20260508094252 52 190 0.0 0.0 0.00 0.00 0.00 81 1012.6
20260508093749 52 179 0.0 0.0 0.00 0.00 0.00 81 1012.7
20260508093246 52 175 0.0 0.0 0.00 0.00 0.00 82 1012.9
20260508092743 51 169 0.0 0.0 0.00 0.00 0.00 81 1012.9
20260508092241 51 292 0.0 1.0 0.00 0.00 0.00 84 1012.8
20260508091739 50 202 0.0 0.0 0.00 0.00 0.00 86 1012.6
20260508091236 51 284 1.0 2.0 0.00 0.00 0.00 85 1012.7
20260508090734 51 142 0.0 1.0 0.00 0.00 0.00 86 1012.7
20260508090232 51 77 1.0 1.0 0.00 0.00 0.00 86 1012.8
20260508085727 51 126 1.0 1.0 0.00 0.00 0.00 85 1013.0
20260508085224 51 125 1.0 1.0 0.00 0.00 0.00 85 1012.7
20260508084720 51 62 1.0 1.0 0.00 0.00 0.00 86 1012.9
20260508084218 51 46 1.0 1.0 0.00 0.00 0.00 86 1012.9
20260508083715 51 95 1.0 1.0 0.00 0.00 0.00 86 1012.8
20260508083213 51 58 1.0 1.0 0.00 0.00 0.00 85 1013.0
20260508082708 51 125 1.0 1.0 0.00 0.00 0.00 84 1013.1
20260508082206 51 130 0.0 1.0 0.00 0.00 0.00 83 1013.0
20260508081703 52 94 1.0 1.0 0.00 0.00 0.00 83 1013.1
20260508081159 52 47 1.0 1.0 0.00 0.00 0.00 81 1012.9
20260508080657 52 170 0.0 1.0 0.00 0.00 0.00 80 1012.9
20260508080155 52 152 0.0 0.0 0.00 0.00 0.00 82 1013.0
20260508075651 52 57 1.0 1.0 0.00 0.00 0.00 82 1012.9
20260508075148 52 61 0.0 1.0 0.00 0.00 0.00 81 1013.1
20260508074646 52 33 1.0 1.0 0.00 0.00 0.00 81 1013.2
20260508074143 53 120 0.0 0.0 0.00 0.00 0.00 79 1013.1
20260508073640 53 176 0.0 0.0 0.00 0.00 0.00 80 1013.2
20260508073138 53 130 0.0 1.0 0.00 0.00 0.00 79 1013.1
20260508072633 52 94 1.0 1.0 0.00 0.00 0.00 80 1013.4
20260508072130 52 135 1.0 1.0 0.00 0.00 0.00 82 1013.2
20260508071627 52 65 1.0 1.0 0.00 0.00 0.00 82 1013.3
20260508071126 52 84 1.0 2.0 0.00 0.00 0.00 82 1013.4
20260508070623 52 41 2.0 2.0 0.00 0.00 0.00 82 1013.4
20260508070122 52 62 1.0 1.0 0.00 0.00 0.00 83 1013.3
20260508065618 52 32 2.0 2.0 0.00 0.00 0.00 82 1013.5
20260508065116 52 33 2.0 2.0 0.00 0.00 0.00 82 1013.6
20260508064614 52 23 2.0 2.0 0.00 0.00 0.00 81 1013.5
20260508064111 52 71 1.0 1.0 0.00 0.00 0.00 81 1013.7
20260508063608 52 45 1.0 1.0 0.00 0.00 0.00 81 1013.6
20260508063106 53 114 1.0 1.0 0.00 0.00 0.00 81 1013.6
20260508062558 52 75 0.0 0.0 0.00 0.00 0.00 80 1013.7
20260508062054 53 62 0.0 0.0 0.00 0.00 0.00 79 1013.5
20260508061552 53 95 0.0 0.0 0.00 0.00 0.00 79 1013.9
20260508061049 53 98 0.0 0.0 0.00 0.00 0.00 78 1014.1
20260508060546 53 115 0.0 0.0 0.00 0.00 0.00 78 1013.8
20260508060043 54 126 0.0 0.0 0.00 0.00 0.00 78 1014.0
20260508055539 54 117 0.0 0.0 0.00 0.00 0.00 75 1014.0
20260508055036 54 154 0.0 0.0 0.00 0.00 0.00 75 1014.2
20260508054532 54 156 0.0 0.0 0.00 0.00 0.00 75 1013.9
20260508054030 55 137 0.0 0.0 0.00 0.00 0.00 76 1013.9
20260508053526 55 150 0.0 0.0 0.00 0.00 0.00 73 1014.2
20260508053025 55 153 0.0 0.0 0.00 0.00 0.00 73 1014.2
20260508052521 56 158 0.0 0.0 0.00 0.00 0.00 71 1014.2
20260508052018 56 172 0.0 0.0 0.00 0.00 0.00 71 1014.1
20260508051515 56 180 0.0 0.0 0.00 0.00 0.00 72 1014.4
20260508051010 56 191 0.0 0.0 0.00 0.00 0.00 72 1014.2
20260508050507 57 194 0.0 0.0 0.00 0.00 0.00 71 1014.3
20260508050004 57 197 0.0 0.0 0.00 0.00 0.00 67 1014.3
20260508045500 57 183 0.0 0.0 0.00 0.00 0.00 69 1014.2
20260508044958 57 198 0.0 0.0 0.00 0.00 0.00 70 1014.3
20260508044455 58 198 0.0 0.0 0.00 0.00 0.00 68 1014.6
20260508043950 58 199 0.0 0.0 0.00 0.00 0.00 67 1014.6
20260508043448 58 198 0.0 0.0 0.00 0.00 0.00 67 1014.4
20260508042943 58 196 0.0 0.0 0.00 0.00 0.00 68 1014.7
20260508042442 59 205 0.0 0.0 0.00 0.00 0.00 66 1014.7
20260508041938 59 191 0.0 0.0 0.00 0.00 0.00 66 1014.6
20260508041435 58 204 0.0 0.0 0.00 0.00 0.00 67 1014.6
20260508040932 59 195 0.0 0.0 0.00 0.00 0.00 67 1014.6
20260508040429 59 190 0.0 0.0 0.00 0.00 0.00 67 1014.8
20260508035927 58 201 0.0 0.0 0.00 0.00 0.00 68 1014.7
20260508035423 59 196 0.0 0.0 0.00 0.00 0.00 68 1014.6
20260508034920 59 191 0.0 0.0 0.00 0.00 0.00 69 1014.8
20260508034418 59 200 0.0 0.0 0.00 0.00 0.00 70 1014.4
20260508033914 58 191 0.0 0.0 0.00 0.00 0.00 71 1014.7
20260508033412 58 202 0.0 0.0 0.00 0.00 0.00 70 1014.6
20260508032909 58 192 0.0 0.0 0.00 0.00 0.00 71 1014.5
20260508032407 58 193 0.0 0.0 0.00 0.00 0.00 73 1014.8
20260508031903 56 186 0.0 0.0 0.00 0.00 0.00 75 1014.6
20260508031401 55 197 0.0 0.0 0.00 0.00 0.00 79 1014.8
20260508030856 55 195 0.0 0.0 0.00 0.00 0.00 78 1014.6
20260508030354 55 196 0.0 0.0 0.00 0.00 0.00 79 1014.6
20260508025850 55 182 0.0 0.0 0.00 0.00 0.00 79 1014.7
20260508025341 55 145 0.0 0.0 0.00 0.00 0.00 78 1014.5
20260508024838 56 127 0.0 0.0 0.00 0.00 0.00 77 1014.4
20260508024335 56 133 0.0 0.0 0.00 0.00 0.00 77 1014.5
20260508023832 56 145 0.0 0.0 0.00 0.00 0.00 78 1014.4
20260508023328 56 147 0.0 0.0 0.00 0.00 0.00 76 1014.4
20260508022825 56 157 0.0 0.0 0.00 0.00 0.00 75 1014.1
20260508022321 57 234 0.0 0.0 0.00 0.00 0.00 73 1014.3
20260508021818 57 148 0.0 0.0 0.00 0.00 0.00 74 1014.1
20260508021314 57 176 0.0 0.0 0.00 0.00 0.00 71 1013.9
20260508020810 57 134 0.0 0.0 0.00 0.00 0.00 72 1013.9
20260508020308 58 169 0.0 0.0 0.00 0.00 0.00 71 1013.8
20260508015805 59 144 0.0 0.0 0.00 0.00 0.00 68 1013.7
20260508015305 59 178 0.0 0.0 0.00 0.00 0.00 66 1013.8
20260508014759 59 174 0.0 0.0 0.00 0.00 0.00 70 1013.8
20260508014256 59 137 0.0 0.0 0.00 0.00 0.00 67 1013.6
20260508013752 59 164 0.0 0.0 0.00 0.00 0.00 68 1013.6
20260508013248 60 164 0.0 0.0 0.00 0.00 0.00 67 1013.9
20260508012746 61 187 0.0 0.0 0.00 0.00 0.00 65 1013.6
20260508012242 61 190 0.0 0.0 0.00 0.00 0.00 64 1013.6
20260508011741 62 194 0.0 0.0 0.00 0.00 0.00 62 1013.5
20260508011238 62 200 0.0 0.0 0.00 0.00 0.00 59 1013.6
20260508010735 63 190 0.0 0.0 0.00 0.00 0.00 57 1013.2
20260508010233 63 188 0.0 0.0 0.00 0.00 0.00 57 1013.2
20260508005729 64 186 0.0 0.0 0.00 0.00 0.00 58 1013.5
20260508005226 64 182 0.0 0.0 0.00 0.00 0.00 54 1013.4
20260508004722 65 198 0.0 0.0 0.00 0.00 0.00 52 1013.3
20260508004218 65 207 1.0 1.0 0.00 0.00 0.00 50 1013.2
20260508003715 65 209 0.0 0.0 0.00 0.00 0.00 54 1013.4
20260508003213 65 202 0.0 0.0 0.00 0.00 0.00 53 1013.2
20260508002709 66 195 3.0 3.0 0.00 0.00 0.00 53 1013.2
20260508002207 66 227 0.0 1.0 0.00 0.00 0.00 52 1013.0
20260508001702 66 189 3.0 3.0 0.00 0.00 0.00 51 1013.1
20260508001158 66 213 3.0 3.0 0.00 0.00 0.00 48 1013.2
20260508000654 67 231 1.0 2.0 0.00 0.00 0.00 49 1013.3
20260508000151 67 215 2.0 2.0 0.00 0.00 0.00 49 1013.0
20260507235648 67 238 2.0 3.0 0.00 0.00 0.00 49 1013.2
20260507235145 67 203 2.0 3.0 0.00 0.00 0.00 47 1013.2
20260507234642 67 227 0.0 1.0 0.00 0.00 0.00 52 1013.3
20260507234138 67 207 6.0 8.0 0.00 0.00 0.00 49 1013.0
20260507233635 67 214 6.0 9.0 0.00 0.00 0.00 47 1013.2
20260507233134 67 202 5.0 6.0 0.00 0.00 0.00 45 1013.2
20260507232630 67 189 3.0 3.0 0.00 0.00 0.00 49 1013.3
20260507232127 67 227 1.0 2.0 0.00 0.00 0.00 51 1013.4
20260507231624 67 214 3.0 5.0 0.00 0.00 0.00 49 1013.4
20260507231121 67 186 4.0 5.0 0.00 0.00 0.00 48 1013.4
20260507230617 67 255 5.0 7.0 0.00 0.00 0.00 49 1013.5
20260507230114 67 227 1.0 2.0 0.00 0.00 0.00 48 1013.7
20260507225609 67 206 5.0 6.0 0.00 0.00 0.00 45 1013.6
20260507225106 67 210 6.0 7.0 0.00 0.00 0.00 46 1013.5
20260507224601 67 184 4.0 5.0 0.00 0.00 0.00 48 1013.7
20260507224058 68 238 1.0 3.0 0.00 0.00 0.00 48 1013.7
20260507223554 68 201 1.0 2.0 0.00 0.00 0.00 45 1013.6
20260507223051 68 213 4.0 5.0 0.00 0.00 0.00 47 1013.7
20260507222549 68 225 3.0 5.0 0.00 0.00 0.00 46 1013.9
20260507222045 68 184 5.0 6.0 0.00 0.00 0.00 46 1013.5
20260507221541 68 251 6.0 8.0 0.00 0.00 0.00 45 1013.9
20260507221038 69 231 2.0 3.0 0.00 0.00 0.00 47 1013.8
20260507220535 68 174 2.0 2.0 0.00 0.00 0.00 45 1013.8
20260507220033 69 187 4.0 5.0 0.00 0.00 0.00 47 1014.0
20260507215529 68 242 3.0 5.0 0.00 0.00 0.00 46 1014.0
20260507215027 69 178 4.0 5.0 0.00 0.00 0.00 46 1014.1
20260507214524 67 227 5.0 6.0 0.00 0.00 0.00 44 1013.9
20260507214020 68 217 1.0 2.0 0.00 0.00 0.00 48 1014.3
20260507213516 67 217 3.0 5.0 0.00 0.00 0.00 50 1014.1
20260507213013 68 250 4.0 5.0 0.00 0.00 0.00 47 1014.4
20260507212509 68 229 4.0 6.0 0.00 0.00 0.00 46 1014.2
20260507212006 69 263 6.0 6.0 0.00 0.00 0.00 46 1014.1
20260507211503 68 221 0.0 1.0 0.00 0.00 0.00 42 1014.2
20260507210959 68 201 0.0 0.0 0.00 0.00 0.00 42 1014.5
20260507210456 66 237 4.0 5.0 0.00 0.00 0.00 47 1014.7
20260507205953 68 212 1.0 2.0 0.00 0.00 0.00 45 1014.4
20260507205450 68 260 2.0 2.0 0.00 0.00 0.00 50 1014.8
20260507204945 67 238 3.0 3.0 0.00 0.00 0.00 46 1014.8
20260507204442 68 218 2.0 2.0 0.00 0.00 0.00 47 1014.9
20260507203940 68 251 0.0 0.0 0.00 0.00 0.00 47 1014.8
20260507203438 66 184 2.0 3.0 0.00 0.00 0.00 50 1014.9
20260507202934 66 209 6.0 7.0 0.00 0.00 0.00 46 1015.0
20260507202431 67 227 2.0 3.0 0.00 0.00 0.00 48 1015.1
20260507201926 66 198 1.0 3.0 0.00 0.00 0.00 46 1015.1
20260507201421 66 223 0.0 0.0 0.00 0.00 0.00 53 1015.3
20260507200919 66 227 3.0 5.0 0.00 0.00 0.00 48 1015.5
20260507200414 67 189 10.0 11.0 0.00 0.00 0.00 45 1015.7
20260507195910 66 208 4.0 6.0 0.00 0.00 0.00 46 1015.7
20260507195408 68 179 5.0 6.0 0.00 0.00 0.00 45 1015.7
20260507194905 67 206 5.0 6.0 0.00 0.00 0.00 49 1015.8
20260507194402 65 257 3.0 7.0 0.00 0.00 0.00 45 1015.9
20260507193858 66 285 6.0 7.0 0.00 0.00 0.00 44 1015.9
20260507193355 66 247 5.0 6.0 0.00 0.00 0.00 49 1015.9
20260507192851 66 221 6.0 6.0 0.00 0.00 0.00 45 1016.0
20260507192347 66 218 7.0 8.0 0.00 0.00 0.00 47 1016.0
20260507191844 67 201 7.0 8.0 0.00 0.00 0.00 47 1016.1
20260507191340 66 185 8.0 9.0 0.00 0.00 0.00 44 1016.1
20260507190838 66 219 4.0 6.0 0.00 0.00 0.00 42 1016.2
20260507190336 66 226 5.0 7.0 0.00 0.00 0.00 46 1016.5
20260507185834 65 219 7.0 8.0 0.00 0.00 0.00 44 1016.5
20260507185331 65 174 7.0 8.0 0.00 0.00 0.00 45 1016.4
20260507184828 65 214 9.0 9.0 0.00 0.00 0.00 43 1016.5
20260507184326 65 230 3.0 5.0 0.00 0.00 0.00 45 1016.5
20260507183822 66 256 5.0 6.0 0.00 0.00 0.00 48 1016.3
20260507183319 66 210 5.0 7.0 0.00 0.00 0.00 45 1016.4
20260507182817 67 286 5.0 7.0 0.00 0.00 0.00 44 1016.5
20260507182312 65 198 4.0 5.0 0.00 0.00 0.00 49 1016.6
20260507181809 67 179 8.0 9.0 0.00 0.00 0.00 42 1016.7
20260507181305 66 250 5.0 7.0 0.00 0.00 0.00 48 1016.5
20260507180802 66 200 9.0 11.0 0.00 0.00 0.00 42 1016.8
20260507180259 66 236 6.0 8.0 0.00 0.00 0.00 45 1016.8
20260507175754 66 192 2.0 2.0 0.00 0.00 0.00 41 1016.8
20260507175251 66 200 6.0 7.0 0.00 0.00 0.00 41 1017.1
20260507174748 66 274 3.0 3.0 0.00 0.00 0.00 45 1017.0
20260507174246 66 277 4.0 5.0 0.00 0.00 0.00 45 1017.3
20260507173744 66 203 4.0 5.0 0.00 0.00 0.00 40 1017.4
20260507173240 65 231 4.0 5.0 0.00 0.00 0.00 44 1017.5
20260507172737 65 206 3.0 3.0 0.00 0.00 0.00 48 1017.6
20260507172229 64 248 3.0 3.0 0.00 0.00 0.00 45 1017.6
20260507171728 64 274 6.0 8.0 0.00 0.00 0.00 45 1017.6
20260507171226 64 256 8.0 10.0 0.00 0.00 0.00 47 1017.6
20260507170723 64 228 4.0 5.0 0.00 0.00 0.00 47 1017.7
20260507170220 65 197 8.0 9.0 0.00 0.00 0.00 44 1018.0
20260507165715 64 259 6.0 7.0 0.00 0.00 0.00 46 1017.9
20260507165212 64 238 4.0 5.0 0.00 0.00 0.00 43 1018.0
20260507164708 64 238 5.0 6.0 0.00 0.00 0.00 46 1018.1
20260507164206 64 200 3.0 3.0 0.00 0.00 0.00 45 1018.2
20260507163702 63 255 3.0 5.0 0.00 0.00 0.00 50 1018.2
20260507163200 64 221 7.0 8.0 0.00 0.00 0.00 45 1018.3
20260507162656 63 237 5.0 6.0 0.00 0.00 0.00 43 1018.0
20260507162152 63 232 4.0 5.0 0.00 0.00 0.00 48 1018.2
20260507161648 63 264 7.0 7.0 0.00 0.00 0.00 49 1018.2
20260507161145 63 270 3.0 5.0 0.00 0.00 0.00 49 1018.1
20260507160641 62 293 4.0 5.0 0.00 0.00 0.00 45 1018.3
20260507160138 63 192 3.0 5.0 0.00 0.00 0.00 49 1018.3
20260507155634 62 225 5.0 5.0 0.00 0.00 0.00 47 1018.4
20260507155130 62 247 5.0 6.0 0.00 0.00 0.00 51 1018.2
20260507154627 62 228 2.0 2.0 0.00 0.00 0.00 45 1018.1
20260507154125 62 208 3.0 3.0 0.00 0.00 0.00 48 1018.3
20260507153621 62 206 4.0 6.0 0.00 0.00 0.00 51 1018.5
20260507153118 61 254 5.0 7.0 0.00 0.00 0.00 48 1018.5
20260507152614 61 227 4.0 5.0 0.00 0.00 0.00 50 1018.4
20260507152110 61 222 4.0 5.0 0.00 0.00 0.00 50 1018.7
20260507151606 61 347 2.0 2.0 0.00 0.00 0.00 46 1018.5
20260507151103 61 215 4.0 5.0 0.00 0.00 0.00 52 1018.6
20260507150600 61 262 4.0 5.0 0.00 0.00 0.00 48 1018.8
20260507150057 61 198 3.0 5.0 0.00 0.00 0.00 58 1018.6
20260507145552 62 238 2.0 2.0 0.00 0.00 0.00 58 1018.8
20260507145050 62 207 1.0 1.0 0.00 0.00 0.00 58 1018.8
20260507144546 61 188 0.0 0.0 0.00 0.00 0.00 56 1018.7
20260507144044 61 204 0.0 0.0 0.00 0.00 0.00 58 1018.6
20260507143541 60 195 1.0 1.0 0.00 0.00 0.00 58 1018.8
20260507143039 59 204 0.0 0.0 0.00 0.00 0.00 59 1018.7
20260507142533 59 218 0.0 0.0 0.00 0.00 0.00 62 1018.8
20260507142030 58 155 0.0 1.0 0.00 0.00 0.00 64 1018.9
20260507141526 57 163 1.0 1.0 0.00 0.00 0.00 65 1019.1
20260507141023 56 169 1.0 1.0 0.00 0.00 0.00 67 1019.4
20260507140520 56 153 0.0 0.0 0.00 0.00 0.00 68 1019.2
20260507140018 56 193 0.0 0.0 0.00 0.00 0.00 74 1019.0
20260507135514 53 179 0.0 0.0 0.00 0.00 0.00 76 1019.0
20260507135012 52 221 0.0 0.0 0.00 0.00 0.00 82 1019.1
20260507134508 51 188 0.0 0.0 0.00 0.00 0.00 90 1019.1
20260507134004 50 136 0.0 0.0 0.00 0.00 0.00 96 1019.1
20260507133500 50 178 0.0 0.0 0.00 0.00 0.00 98 1019.2
20260507132958 48 171 0.0 0.0 0.00 0.00 0.00 98 1019.5
20260507132454 47 181 0.0 0.0 0.00 0.00 0.00 98 1019.3
20260507131951 47 188 0.0 0.0 0.00 0.00 0.00 98 1019.5
20260507131448 46 204 0.0 0.0 0.00 0.00 0.00 98 1019.3
20260507130945 46 215 0.0 0.0 0.00 0.00 0.00 99 1019.5
20260507130442 45 213 0.0 0.0 0.00 0.00 0.00 98 1019.6
20260507125941 45 234 0.0 0.0 0.00 0.00 0.00 98 1019.4
20260507125438 45 212 0.0 0.0 0.00 0.00 0.00 98 1019.8
20260507124930 45 225 0.0 0.0 0.00 0.00 0.00 98 1019.7
20260507124426 45 210 0.0 0.0 0.00 0.00 0.00 98 1019.6
20260507123924 44 220 0.0 0.0 0.00 0.00 0.00 98 1019.4
20260507123422 44 224 0.0 0.0 0.00 0.00 0.00 98 1019.5
20260507122918 44 226 0.0 0.0 0.00 0.00 0.00 98 1019.4
20260507122413 43 239 0.0 0.0 0.00 0.00 0.00 98 1019.4
20260507121909 43 269 0.0 0.0 0.00 0.00 0.00 98 1019.3
20260507121405 43 242 0.0 0.0 0.00 0.00 0.00 98 1019.1
20260507120902 43 182 0.0 0.0 0.00 0.00 0.00 98 1019.1
20260507120358 43 174 0.0 0.0 0.00 0.00 0.00 98 1019.1
20260507115855 42 230 0.0 0.0 0.00 0.00 0.00 98 1019.1
20260507115351 42 234 0.0 0.0 0.00 0.00 0.00 98 1019.2
20260507114846 41 245 0.0 0.0 0.00 0.00 0.00 98 1018.9
20260507114343 41 258 0.0 0.0 0.00 0.00 0.00 98 1019.0
20260507113841 41 246 0.0 0.0 0.00 0.00 0.00 98 1018.9
20260507113338 41 255 0.0 0.0 0.00 0.00 0.00 98 1018.8
20260507112835 41 255 0.0 0.0 0.00 0.00 0.00 98 1018.9
20260507112332 41 237 0.0 0.0 0.00 0.00 0.00 98 1018.6
20260507111830 41 241 0.0 0.0 0.00 0.00 0.00 98 1018.9
20260507111327 41 297 0.0 0.0 0.00 0.00 0.00 98 1019.0
20260507110822 41 293 0.0 0.0 0.00 0.00 0.00 98 1018.8
20260507110313 41 261 0.0 0.0 0.00 0.00 0.00 98 1018.9
20260507105810 41 264 0.0 0.0 0.00 0.00 0.00 98 1018.9
20260507105307 41 246 0.0 0.0 0.00 0.00 0.00 98 1018.7